Regional Weather Roundup
Issued by NWS Jackson, KY

Home | Current Version | Previous Version | Text Only | Print | Product List | Glossary Off
Versions: 1 2 3 4 5 6 7 8 9 10 11 12 13 14 15 16 17 18 19 20 21 22 23 24 25 26 27 28 29 30 31 32 33 34 35 36 37 38 39 40 41 42 43 44 45 46 47 48 49 50

000
ASUS43 KJKL 301410
RWRJKL

EAST KENTUCKY HOURLY WEATHER ROUNDUP
NATIONAL WEATHER SERVICE JACKSON KY
1000 AM EDT THU JUL 30 2015

NOTE: "FAIR" INDICATES FEW OR NO CLOUDS BELOW 12,000 FEET WITH
NO SIGNIFICANT WEATHER AND/OR OBSTRUCTIONS TO VISIBILITY.

* THESE REPORTS ARE NOT UNDER NWS QUALITY CONTROL AND MAY NOT
  REPORT WEATHER SUCH AS PRECIPITATION AND FOG.

KYZ079-080-083-085-087-088-110-112-115-119-120-301500
...EASTERN KENTUCKY...

CITY           SKY/WX    TMP DP  RH WIND       PRES   REMARKS
JACKSON        MOSUNNY   78  69  73 VRB3      30.08R
LONDON         SUNNY     80  67  64 VRB6      30.09R
SOMERSET*      SUNNY     75  64  69 N6        30.10S
MONTICELLO*    SUNNY     80  70  71 N7        30.12R
MIDDLESBORO*   CLOUDY    76  72  86 NE5       30.08F
HAZARD APT*    CLOUDY    79  73  83 N3        30.08R
BLACK MTN*       N/A     68  68 100 VRB3        N/A
BIG SANDY*     CLOUDY    78  71  79 N7        30.07R
MOREHEAD APT*  SUNNY     79  61  53 VRB6      30.10R
$$

KYZ035-036-041-042-044-050-067-078-099-301500
...CENTRAL KENTUCKY...

CITY           SKY/WX    TMP DP  RH WIND       PRES   REMARKS
MT STERLING*   SUNNY     77  68  73 N3        30.10S
FLEMING/MASON* SUNNY     77  63  61 N6        30.09R
DANVILLE*      SUNNY     73  64  73 N9        30.11S
RICHMOND*      SUNNY     73  64  73 N3        30.09S
LEXINGTON      SUNNY     76  64  66 N6        30.10R
FRANKFORT      SUNNY     75  62  64 NW6       30.09R
$$

KYZ091>093-OHZ055-061-077-WVZ005-015-034-035-042-301500
...SOUTHERN OHIO/WEST VIRGINIA...

CITY           SKY/WX    TMP DP  RH WIND       PRES   REMARKS
COVINGTON      MOSUNNY   75  60  59 NW12      30.09R
COLUMBUS       MOSUNNY   77  60  55 NW8       30.03R
DAYTON         MOSUNNY   74  62  66 NW9       30.08R
WILMINGTON     SUNNY     74  61  63 NW8       30.07R
HUNTINGTON     CLOUDY    78  65  63 N8        30.04R
CHARLESTON     PTSUNNY   77  71  82 CALM      30.03R
PINEVILLE*     CLOUDY    74  74 100 MISG      30.12R FOG
BECKLEY        CLOUDY    73  70  90 W6        30.10S FOG
BLUEFIELD      CLOUDY    74  69  85 W6        30.13R HAZE
$$

VAZ002-007-008-TNZ017-027-036-066-071-301500
...SOUTHWEST VIRGINIA/EAST TENNESSEE...

CITY           SKY/WX    TMP DP  RH WIND       PRES   REMARKS
WISE*          CLOUDY    73  73 100 NW6       30.15R
ABINGDON*      PTSUNNY   79  71  76 W3        30.10R
BRISTOL        MOSUNNY   79  72  79 CALM      30.07R
KNOXVILLE      CLOUDY    80  70  71 N8        30.06R
OAK RIDGE      PTSUNNY   81  71  71 CALM      30.07S
CROSSVILLE     CLOUDY    75  70  84 N6        30.13S
NASHVILLE      MOSUNNY   82  65  56 NE12      30.10R
$$

...KEY TO REMARKS...
VSB - VISIBILITY IN MILES
WCI - WIND CHILL INDEX
HX  - HEAT INDEX

$$


USA.gov is the U.S. government's official web portal to all federal, state and local government web resources and services.